TimeEST,TemperatureF,Dew PointF,Humidity,Sea Level PressureIn,VisibilityMPH,Wind Direction,Wind SpeedMPH,Gust SpeedMPH,PrecipitationIn,Events,Conditions,WindDirDegrees,DateUTC
12:53 AM,19.9,16.0,85,29.96,8.0,WSW,10.4,-,N/A,,Clear,240,2014-02-10 05:53:00
1:53 AM,19.9,15.1,81,29.98,8.0,WSW,8.1,-,N/A,,Clear,240,2014-02-10 06:53:00
2:53 AM,19.0,14.0,81,29.98,8.0,WSW,9.2,-,N/A,,Clear,250,2014-02-10 07:53:00
3:53 AM,12.9,8.1,81,30.00,8.0,Calm,Calm,-,N/A,,Clear,0,2014-02-10 08:53:00
4:53 AM,5.0,3.0,92,30.04,5.0,Calm,Calm,-,N/A,,Clear,0,2014-02-10 09:53:00
5:22 AM,6.1,3.0,87,30.04,2.0,Calm,Calm,-,N/A,,Clear,0,2014-02-10 10:22:00
5:32 AM,7.0,3.0,84,30.04,5.0,Calm,Calm,-,N/A,,Clear,0,2014-02-10 10:32:00
5:53 AM,8.1,3.9,83,30.05,6.0,Calm,Calm,-,N/A,,Clear,0,2014-02-10 10:53:00
6:53 AM,5.0,1.0,84,30.07,10.0,Calm,Calm,-,N/A,,Clear,0,2014-02-10 11:53:00
7:53 AM,6.1,3.0,87,30.09,10.0,SW,4.6,-,N/A,,Clear,230,2014-02-10 12:53:00
8:53 AM,16.0,10.0,77,30.13,10.0,Calm,Calm,-,N/A,,Clear,0,2014-02-10 13:53:00
9:53 AM,21.9,9.0,58,30.14,10.0,SW,10.4,-,N/A,,Partly Cloudy,230,2014-02-10 14:53:00
10:53 AM,24.1,9.0,53,30.14,10.0,West,8.1,-,N/A,,Clear,260,2014-02-10 15:53:00
11:53 AM,25.0,7.0,46,30.12,10.0,West,10.4,-,N/A,,Partly Cloudy,280,2014-02-10 16:53:00
12:53 PM,27.0,5.0,39,30.10,10.0,NNW,10.4,17.3,N/A,,Clear,340,2014-02-10 17:53:00
1:53 PM,28.0,5.0,38,30.10,10.0,WNW,10.4,19.6,N/A,,Clear,300,2014-02-10 18:53:00
2:53 PM,27.0,5.0,39,30.10,10.0,NW,9.2,-,N/A,,Partly Cloudy,320,2014-02-10 19:53:00
3:53 PM,28.0,3.9,36,30.11,10.0,NNW,10.4,-,N/A,,Clear,330,2014-02-10 20:53:00
4:53 PM,27.0,3.0,36,30.14,10.0,NW,8.1,-,N/A,,Clear,320,2014-02-10 21:53:00
5:53 PM,24.1,3.9,42,30.17,10.0,WNW,5.8,-,N/A,,Clear,290,2014-02-10 22:53:00
6:53 PM,21.9,3.9,46,30.19,10.0,WNW,5.8,-,N/A,,Clear,290,2014-02-10 23:53:00
7:53 PM,17.1,3.9,56,30.21,10.0,WNW,3.5,-,N/A,,Clear,300,2014-02-11 00:53:00
8:53 PM,12.0,3.9,70,30.22,9.0,ESE,3.5,-,N/A,,Clear,110,2014-02-11 01:53:00
9:53 PM,9.0,3.0,77,30.24,8.0,Calm,Calm,-,N/A,,Clear,0,2014-02-11 02:53:00
10:53 PM,7.0,1.0,77,30.26,7.0,Calm,Calm,-,N/A,,Clear,0,2014-02-11 03:53:00
11:53 PM,3.9,-0.9,80,30.27,6.0,Calm,Calm,-,N/A,,Haze,0,2014-02-11 04:53:00